Regional Weather Roundup
Issued by NWS Bismarck, ND

Home | Current Version | Previous Version | Text Only | Print | Product List | Glossary On
Versions: 1 2 3 4 5 6 7 8 9 10 11 12 13 14 15 16 17 18 19 20 21 22 23 24 25 26 27 28 29 30 31 32 33 34 35 36 37 38 39 40 41 42 43 44 45 46 47 48 49 50
353
ASUS43 KBIS 231402
RWRBIS

NWR BROADCAST TEXT
NATIONAL WEATHER SERVICE BISMARCK ND
900 AM CDT SAT JUL 23 2016

NOTE: "FAIR" INDICATES FEW OR NO CLOUDS BELOW 12,000 FEET WITH NO
SIGNIFICANT WEATHER AND/OR OBSTRUCTIONS TO VISIBILITY.


CITY           SKY/WX    TMP DP  RH WIND       PRES   REMARKS
WILLISTON      MOSUNNY   69  63  81 SW7       29.83S
MINOT          TSTM      66  63  90 SE8       29.78F FOG
MINOT AFB      CLOUDY    65  63  93 S15       29.76F
BISMARCK       CLOUDY    67  65  93 N24G37    29.81R
DICKINSON      PTSUNNY   66  61  82 N8        29.83R
GARRISON         N/A     66  64  93 E10       29.80S
HETTINGER ARPT PTSUNNY   70  62  76 SW5       29.82S
JAMESTOWN      CLOUDY    72  68  87 E6        29.77F
CARRINGTON     PTSUNNY   68  66  94 N8G14     29.83F
HAZEN          CLOUDY    66  64  94 E10       29.82F
OAKES            N/A    N/A N/A N/A MISG        N/A
STANLEY          N/A     64  64 100 SE8       29.85
$$

CITY           SKY/WX    TMP DP  RH WIND       PRES   REMARKS
GRAND FORKS    PTSUNNY   73  65  75 E7        29.82F
GRAND FORKS AF PTSUNNY   72  64  77 E7        29.82F
DEVILS LAKE    CLOUDY    68  65  90 CALM      29.86F
FARGO          CLOUDY    76  64  66 E10       29.78F
CAVALIER       LGT RAIN  64  63  94 NE3       29.86F
GRAFTON        FAIR      66  66 100 NE5       29.86R
GWINNER        CLOUDY    75  72  88 E10       29.78F
LANGDON        LGT RAIN  64  64 100 SW6       29.90R
ROLLA          LGT RAIN  64  64 100 SE17G23   29.83F
$$

CITY           SKY/WX    TMP DP  RH WIND       PRES   REMARKS
ABERDEEN       CLOUDY    75  69  81 SE9       29.72F
MOBRIDGE       CLOUDY    77  68  73 SE14      29.69R
BUFFALO          N/A     74  61  63 NW31G37   29.80R
RAPID CITY     SUNNY     77  59  53 N7        29.86R
GLASGOW        SUNNY     67  49  52 W18G29    29.87S
SIDNEY         PTSUNNY   73  60  63 NW10      29.85R
WOLF POINT     SUNNY     69  56  62 W12       29.86S
GLENDIVE       MOSUNNY   69  56  62 NW14G21   29.89R
MILES CITY     SUNNY     71  48  43 NW12      29.94R
BAKER          SUNNY     69  62  78 W12       29.90R
$$

CITY           SKY/WX    TMP DP  RH WIND       PRES   REMARKS
BILLINGS       SUNNY     66  46  48 SW6       30.04S
GREAT FALLS    SUNNY     65  40  39 W20       30.05R
$$





USA.gov is the U.S. government's official web portal to all federal, state and local government web resources and services.